Showing default

COSMOS 2583, 62904

Orbit data source: Space-Track

COSMOS 2583, 62904 is a payload satellite owned by MO RF (CIS) in LEO that was launched on Wed, 05 Feb 2025 UTC via a SOYUZ-2-1V launch vehicle from the Plesetsk Missile And Space Complex (PKMTR). Payload-class satellites include a variety of spacecraft equipped with specific instruments for various scientific and technological missions. These include communications satellites like Starlink; space stations such as the ISS; scientific satellites like the Hubble; Earth observation satellites from companies like Planet Labs, Umbra, and HawkEye 360; GPS; miniature CubeSats for education and research; and military/defense satellites.

Loading next visibility...
Identifier
62904, 2025-026C
Orbit
LEO
Last TLE update
8 hours ago
Origin
Manufacturer
VNIIEM
Mission
Operational Defense Imaging
Bus & Motor
EMKA, Unknown motor
Mass
~500 kg wet, 500 kg dry
Launch date (UTC)
2025-02-05 (3 months ago)
Launch vehicle
SOYUZ-2-1V
Launch site
Plesetsk Missile And Space Complex (PKMTR)
Object type
Payload
Rocket body
Debris
Shape & HBR
Cyl + 2 Pan, 3 m
Radar Cross Section
3.727 m², Medium (>0.1 m² and < 1m²)

Expand to show TLE details & history

TLE from 8 hours ago
0 COSMOS 2583
1 62904U 25026C   25128.94770043  .00002982  00000-0  27677-3 0  9991
2 62904  81.9920 126.4228 0013124 320.5422  39.4841 14.94072208 13837
Epoch: 2025-05-08T22:44Z
Definitive object data (Epoch: 2025-05-08T22:44:41.317Z)
Latitude
0.00006°
Longitude
-81.76023°
Altitude
581.241 km
Speed
7.574 km/s
True Right ascension
08h 25m 41s
True Declination
0° 00' 00"
Sunlit
Object was in daylight at TLE epoch
Visualization TLE readout
Latitude
-68.44164°
Longitude
118.66044°
Altitude
607.819 km
Speed
7.556 km/s
Apparent Right ascension
00h 55m 41s
Apparent Declination
-59° 14' 53"
Sunlit
Object is in daylight
Visualization observer readout
Local Sidereal Time
14:26:11
Azimuth
151.095° SSE
Elevation
-65.984°
Doppler factor
1
Orbital elements
Apogee altitude
591.416 km
Perigee altitude
573.146 km
Semi-major axis
6,960.418 km
Eccentricity
0.0013124
Inclination
81.992°
RAAN
126.4228°
Arg. of periapsis
320.5422°
True anomaly
39.57985°
Mean anomaly
39.4841°
Eccentric anomaly
39.53196°
Mean motion
3.73758 °/min
BSTAR
0.00027677
Orbital period
96.32 mins
Loading maneuver chart data...
Loading SW <> Apogee altitude chart data...
Loading historical data...
Loading historical data...
Loading historical data...
Loading historical data...
Loading historical data...
Loading historical data...
Loading historical data...

COSMOS 2583 Visibility forecast

Observer location: undefined°, undefined°

Span
Click to sort rows by Start time (UTC) header in descending order
Start Az.
Max El. time (UTC)
Max El. Az.
Max El.
End time (UTC)
End Az.
4 mins2025-05-09 10:34:23.013Z41.596° NE2025-05-09 10:36:23.013Z71.848° E14.322°2025-05-09 10:38:23.013Z101.507° ESE
6 mins2025-05-09 12:11:23.013Z326.092° NNW2025-05-09 12:13:23.013Z280.93° WNW33.397°2025-05-09 12:17:23.013Z197.795° SSW
7 mins2025-05-10 00:35:23.013Z189.304° SSW2025-05-10 00:38:23.013Z226.606° WSW44.76°2025-05-10 00:42:23.013Z7.011° NNE
|